Regional Weather Roundup
Issued by NWS

Home | Current Version | Previous Version | Text Only | Print | Product List | Glossary Off
Versions: 1 2 3 4 5 6 7 8 9 10 11 12 13 14 15 16 17 18 19 20 21 22 23 24 25 26 27

000
ASUS45 KBOU 092107
RWRCO

WEATHER ROUNDUP FOR COLORADO
NATIONAL WEATHER SERVICE DENVER/BOULDER CO
200 PM MST FRI DEC 09 2016

NOTE: "FAIR" INDICATES FEW OR NO CLOUDS BELOW 12000 FEET WITH NO
SIGNIFICANT WEATHER AND/OR OBSTRUCTIONS TO VISIBILITY.

COZ001>005-013-030-031-092200-
...NORTHWEST COLORADO...

CITY           SKY/WX    TMP DP  RH WIND       PRES   REMARKS
CRAIG          CLOUDY    37  26  64 NE3       30.21F
HAYDEN         CLOUDY    30  25  80 E8        30.22S WCI  23
MEEKER         CLOUDY    39  24  55 SW13      30.21F
MOUNT WERNER   NOT AVBL
STEAMBOAT SPGS CLOUDY    26  24  91 CALM      30.22S VSB 3/4
WALDEN           N/A     34  23  64 SW17G24   30.16R WCI  23
$$

COZ006>008-011-092200-
...WEST CENTRAL VALLEYS...

CITY           SKY/WX    TMP DP  RH WIND       PRES   REMARKS
GRAND JUNCTION FAIR      36  16  44 CALM      30.27F
MONTROSE       FAIR      39  20  46 NW6       30.28F
EAGLE          CLOUDY    36  25  64 CALM      30.27F
RIFLE          CLOUDY    32  19  58 CALM      30.30F
DELTA          NOT AVBL
NUCLA          FAIR      43  19  39 NW3       30.29F
$$

COZ017>023-064>068-092200-
...SOUTHWEST COLORADO...

CITY           SKY/WX    TMP DP  RH WIND       PRES   REMARKS
DURANGO        FAIR      43  18  36 VRB5      30.27F
CORTEZ         FAIR      46  24  42 NW8       30.28F
PAGOSA SPRINGS FAIR      39  17  40 CALM      30.27F
TELLURIDE      NOT AVBL
WOLF CREEK PAS FAIR      27  18  69 S8        30.36S WCI  18
$$

COZ009-010-012-014-032>034-037-058>063-092200-
...CENTRAL COLORADO...

CITY           SKY/WX    TMP DP  RH WIND       PRES   REMARKS
ASPEN          CLOUDY    31  26  82 CALM      30.25
BUENA VISTA    CLOUDY    45  17  33 W22G37    30.18S
COPPER MTN     NOT AVBL
BERTHOUD PASS  SNOW      16   3  57 MISG      30.21R VSB<1/4
COTTONWOOD PAS FAIR      36  19  51 W40G60    30.13R
GUNNISON       FAIR      31  21  66 S5        30.28F WCI  26
KREMMLING      CLOUDY    43  30  61 SW10G16   30.22S
LEADVILLE      CLOUDY    29  18  63 N13G21    30.22S WCI  19
SALIDA         FAIR      47  19  33 W29G38    30.21F
SUNLIGHT       LGT SNOW  23  21  93 SW10G24   30.29S WCI  12
WILKERSON PASS FAIR      30  16  55 W15G31    30.19R WCI  19
$$

COZ069>075-092200-
...SAN LUIS VALLEY/SANGRE DE CRISTO MOUNTAINS...

CITY           SKY/WX    TMP DP  RH WIND       PRES   REMARKS
ALAMOSA        FAIR      40  17  39 VRB3      30.24S
LA VETA PASS   FAIR      34  21  60 NE20G30   30.22R WCI  22
SAGUACHE       FAIR      39  16  38 S10G17    30.23F
$$

COZ035-036-038>040-092200-
...NORTHERN COLORADO FRONT RANGE...

CITY           SKY/WX    TMP DP  RH WIND       PRES   REMARKS
DENVER INTL AP FAIR      52  22  30 NW13      30.06S
DMNS CITY PARK   N/A     52  23  32 N9        30.06R
AURORA         PTSUNNY   52  23  32 NE6       30.07S
FRONT RANGE AP MOSUNNY   55  27  33 W9G16     30.07F
ERIE MUNI ARPT FAIR      33  25  70 CALM      30.07S
BOULDER MUN AP FAIR      36  25  64 E3        30.05F
CENTENNIAL     FAIR      50  22  33 NE3       30.06F
BROOMFIELD     MOSUNNY   48  25  40 NW9       30.06F
FORT COLLINS   FAIR      32  19  59 CALM      30.08R
LONGMONT       FAIR      32  21  65 E5        30.09R WCI  27
$$

COZ041-046-047-076>085-087-088-092200-
...PIKES PEAK/PALMER DIVIDE AND SOUTHERN FOOTHILLS...

CITY           SKY/WX    TMP DP  RH WIND       PRES   REMARKS
COLO. SPRINGS  PTSUNNY   49  27  42 S12       30.09S
A. F. ACADEMY  FAIR      47  26  44 SW7       30.08S
SCHRIEVER AFB  NOT AVBL
ELLICOTT       FAIR     N/A N/A N/A SW10      30.09R
FALCON         PTSUNNY   47  22  37 S6        30.12R
FORT CARSON    FAIR      48  28  45 SE13      30.07S
LIMON          FAIR      51  21  30 SE7       30.09R
MONUMENT HILL  FAIR      45  19  36 S6        30.11S
TRINIDAD       FAIR      58  17  20 CALM      30.10F
$$

COZ042>045-048>051-090-091-092200-
...NORTHEAST COLORADO...

CITY           SKY/WX    TMP DP  RH WIND       PRES   REMARKS
GREELEY ARPT   FAIR      31  19  61 E7        30.09F WCI  24
AKRON          FAIR      32  18  56 NE5       30.11R WCI  27
BURLINGTON     FAIR      43  16  33 S9        30.12R
WRAY           NOT AVBL
STERLING       FAIR      30  19  64 CALM      30.14R
HOLYOKE        FAIR      34  19  55 CALM      30.17R
FORT MORGAN    FAIR      33  18  55 NE7       30.11S WCI  26
$$

COZ086-089-092>099-092200-
...SOUTHEAST COLORADO...

CITY           SKY/WX    TMP DP  RH WIND       PRES   REMARKS
PUEBLO         FAIR      41  16  36 E8        30.08F
LA JUNTA       FAIR      35  10  35 SE3       30.12F
LAMAR          FAIR      39  12  33 S7        30.13F
SPRINGFIELD      N/A     44  22  41 E6        30.13R
$$




USA.gov is the U.S. government's official web portal to all federal, state and local government web resources and services.